SCP
2 2 1 1 0 0 0 0 0 0 0 0 0 0 0 0 0 0 0 0 0 0
0 0 0 0 0 0 0 0 0 0 0 0 0 0 0 0 0 0 0 0 0 0
0 0 0 0 0 0 0 0 0 0 0 0 0 0 0 0 0 0 0 0 0 0
0 0 0 0 0 0 0 0 0 0 0 0 0 0 0 0 0 0 0 0 0 0
0 0 0 0 0 0 0 0 0 0 0 0 0 0 0 0 0 0 0 0 0 0
0 0 0 0 0 0 0 0 0 0 0 0 0 0 0 0 0 0 0 0 0 0
0 0 0 0 0 0 0 0 0 0 0 0 0 0 0 0 0 0 0 0 0 0
0 0 0 0 0 0 0 0 0 0 0 0 0 0 0 0 0 0 0 0 0 0
0 0 0 0 0 0 0 0 0 0 0 0 0 0 0 0 0 0 0 0 0 -0
0 0 0 0 0 0 0 0 0 0 0 0 0 0 0 0 0 0 0 0 0 0
0 0 0 0 0 0 0 0 0 0 0 0 0 0 0 0 0 0 0 -0 -0 0
0 0 0 0 0 0 0 0 0 0 0 0 0 0 0 0 -0 0 -0 0 0 0
0 0 0 0 0 0 0 0 0 0 0 0 0 0 0 0 -0 0 0 0 0 0
0 0 0 0 0 0 0 0 0 0 0 0 0 0 0 0 0 0 0 0 0 0
Wind_Speed_500mb
28 28 26 27 22 16 9 2 10 16 19 21 24 28 30 29 32 37 38 39 36 38
36 33 28 24 17 10 8 7 11 14 18 23 28 32 34 24 36 38 33 36 31 32
30 25 20 15 9 4 2 6 12 17 24 28 30 31 35 28 27 37 35 32 32 37
28 23 19 14 9 7 10 13 17 22 24 22 25 28 34 32 30 30 33 33 33 34
25 20 16 13 9 10 12 15 19 21 22 23 25 27 29 30 30 31 33 34 35 34
21 15 11 9 10 11 14 15 18 20 21 23 25 26 24 25 29 30 33 34 34 36
16 11 9 9 11 12 14 15 16 19 19 21 23 20 23 32 30 30 30 35 35 33
13 11 9 11 12 13 14 14 16 18 19 19 16 28 33 33 34 34 33 33 25 25
11 9 11 13 12 13 12 14 14 14 18 25 25 29 31 30 32 24 25 28 29 27
12 10 13 12 11 10 14 14 14 18 18 22 27 25 26 29 28 23 25 26 25 25
12 11 11 10 11 8 8 15 18 24 21 20 25 26 28 31 28 23 20 15 22 27
12 10 10 10 8 6 7 12 17 23 22 17 26 27 33 33 31 24 18 25 27 32
13 11 9 9 8 6 7 12 15 16 21 20 22 25 34 35 33 25 21 23 25 33
12 17 12 7 8 5 10 10 14 15 12 24 20 24 31 32 31 29 25 20 21 24
Wind_Direction_500mb
134 132 130 138 132 124 117 224 303 309 316 317 318 318 318 318 305 298 301 298 296 297
130 139 132 131 118 147 143 13 328 324 329 330 326 324 324 328 320 309 311 312 316 298
116 120 124 126 129 130 60 337 336 335 333 331 329 325 320 316 310 312 317 313 304 305
104 105 108 98 86 48 1 347 337 333 333 332 330 325 324 324 328 313 315 313 310 306
98 94 89 79 45 12 348 342 340 334 335 336 333 330 331 325 322 321 314 313 311 310
92 85 69 37 6 359 351 348 343 342 344 341 337 333 323 321 317 312 310 310 305 306
78 60 31 16 2 349 351 354 352 349 344 338 336 316 306 323 318 312 308 307 312 316
58 43 23 8 1 3 5 360 357 349 343 305 336 301 313 323 317 314 311 306 319 320
52 27 14 17 14 14 10 360 13 339 316 309 312 327 334 335 333 347 333 332 334 337
40 17 13 18 24 6 23 358 3 334 335 333 336 345 350 346 344 341 340 333 341 352
24 13 14 21 22 33 25 4 4 340 336 340 342 343 352 347 348 351 342 358 13 349
18 19 24 36 22 4 39 6 358 332 333 340 327 347 353 354 359 348 19 32 7 354
32 28 43 37 17 356 36 9 358 345 337 343 344 352 354 357 0 14 48 34 354 341
26 49 12 7 344 353 18 14 5 355 10 346 353 5 0 0 16 27 41 12 349 359
Wind_Speed_850mb
28 28 26 27 22 16 9 2 10 16 19 21 24 28 30 29 32 37 38 39 36 38
36 33 28 24 17 10 8 7 11 14 18 23 28 32 34 24 36 38 33 36 31 32
30 25 20 15 9 4 2 6 12 17 24 28 30 31 35 28 27 37 35 32 32 37
28 23 19 14 9 7 10 13 17 22 24 22 25 28 34 32 30 30 33 33 33 34
25 20 16 13 9 10 12 15 19 21 22 23 25 27 29 30 30 31 33 34 35 34
21 15 11 9 10 11 14 15 18 20 21 23 25 26 24 25 29 30 33 34 34 36
16 11 9 9 11 12 14 15 16 19 19 21 23 20 23 32 30 30 30 35 35 33
13 11 9 11 12 13 14 14 16 18 19 19 16 28 33 33 34 34 33 33 25 25
11 9 11 13 12 13 12 14 14 14 18 25 25 29 31 30 32 24 25 28 29 27
12 10 13 12 11 10 14 14 14 18 18 22 27 25 26 29 28 23 25 26 25 25
12 11 11 10 11 8 8 15 18 24 21 20 25 26 28 31 28 23 20 15 22 27
12 10 10 10 8 6 7 12 17 23 22 17 26 27 33 33 31 24 18 25 27 32
13 11 9 9 8 6 7 12 15 16 21 20 22 25 34 35 33 25 21 23 25 33
12 17 12 7 8 5 10 10 14 15 12 24 20 24 31 32 31 29 25 20 21 24
Wind_Direction_850mb
134 132 130 138 132 124 117 224 303 309 316 317 318 318 318 318 305 298 301 298 296 297
130 139 132 131 118 147 143 13 328 324 329 330 326 324 324 328 320 309 311 312 316 298
116 120 124 126 129 130 60 337 336 335 333 331 329 325 320 316 310 312 317 313 304 305
104 105 108 98 86 48 1 347 337 333 333 332 330 325 324 324 328 313 315 313 310 306
98 94 89 79 45 12 348 342 340 334 335 336 333 330 331 325 322 321 314 313 311 310
92 85 69 37 6 359 351 348 343 342 344 341 337 333 323 321 317 312 310 310 305 306
78 60 31 16 2 349 351 354 352 349 344 338 336 316 306 323 318 312 308 307 312 316
58 43 23 8 1 3 5 360 357 349 343 305 336 301 313 323 317 314 311 306 319 320
52 27 14 17 14 14 10 360 13 339 316 309 312 327 334 335 333 347 333 332 334 337
40 17 13 18 24 6 23 358 3 334 335 333 336 345 350 346 344 341 340 333 341 352
24 13 14 21 22 33 25 4 4 340 336 340 342 343 352 347 348 351 342 358 13 349
18 19 24 36 22 4 39 6 358 332 333 340 327 347 353 354 359 348 19 32 7 354
32 28 43 37 17 356 36 9 358 345 337 343 344 352 354 357 0 14 48 34 354 341
26 49 12 7 344 353 18 14 5 355 10 346 353 5 0 0 16 27 41 12 349 359